Keahole Point, HI

11:34 PM HST on May 27, 2017 (GMT -1000)
Kona International At Keahole

Weather History for PHKO - May, 2012

Change the Weather History Date:

Thursday, May 24, 2012

  Actual Average Record
Temperature  
Mean Temperature 78 °F -  
Max Temperature 82 °F 81 °F 92 °F (1983)
Min Temperature 73 °F 70 °F 68 °F (1983)
Cooling Degree Days 12    
Growing Degree Days 28 (Base 50)    
Moisture  
Dew Point 66 °F    
Average Humidity 67    
Maximum Humidity 76    
Minimum Humidity 58    
Precipitation  
Precipitation 0.00 in - - ()
Sea Level Pressure  
Sea Level Pressure 30.05 in    
Wind  
Wind Speed 7 mph (South)    
Max Wind Speed 10 mph    
Max Gust Speed -    
Visibility 10 miles    
Events Rain    
Averages and records for this station are not official NWS values.
T = Trace of Precipitation, MM = Missing Value Source: NWS Daily Summary

Daily Weather History Graph

Daily Weather History Graph

Search for Another Location

Airport or City:

Trip Planner

Search our weather history database for the weather conditions in past years. The results will help you decide how hot, cold, wet, or windy it might be!

Date:

Astronomy

May. 24, 2012 Rise Set
Actual Time 5:45 AM HST 6:56 PM HST
Civil Twilight 5:21 AM HST 7:20 PM HST
Nautical Twilight 4:53 AM HST 7:49 PM HST
Astronomical Twilight 4:24 AM HST 8:18 PM HST
Moon 8:52 AM HST (5/24) 10:12 PM HST (5/24)
Length of Visible Light 13h 58m
Length of Day
13h 10m
Waxing Crescent, 14% of the Moon is Illuminated
May 24
Waxing Crescent
May 28
First Quarter
Jun 4
Full
Jun 11
Last Quarter
Jun 19
New

Hourly Weather History & Observations

Time (HST) Temp. Heat Index Dew Point Humidity Pressure Visibility Wind Dir Wind Speed Gust Speed Precip Events Conditions
12:53 AM 75.0 °F - 66.9 °F 76% 30.06 in 10.0 mi ESE 6.9 mph - N/A   Overcast
1:13 AM 75.2 °F - 66.2 °F 73% 30.05 in 10.0 mi ESE 6.9 mph - N/A   Overcast
1:49 AM 75.2 °F - 66.2 °F 73% 30.04 in 10.0 mi ESE 6.9 mph - N/A   Overcast
1:53 AM 75.0 °F - 66.0 °F 73% 30.04 in 10.0 mi ESE 8.1 mph - N/A   Overcast
2:14 AM 75.2 °F - 66.2 °F 73% 30.03 in 10.0 mi ESE 5.8 mph - N/A   Overcast
2:53 AM 73.9 °F - 64.0 °F 71% 30.04 in 10.0 mi ESE 5.8 mph - N/A   Overcast
3:53 AM 73.9 °F - 63.0 °F 68% 30.03 in 10.0 mi ESE 6.9 mph - N/A   Overcast
4:53 AM 73.0 °F - 63.0 °F 71% 30.04 in 10.0 mi ESE 8.1 mph - N/A   Overcast
5:18 AM 73.4 °F - 62.6 °F 69% 30.04 in 10.0 mi ESE 6.9 mph - N/A   Overcast
5:53 AM 73.9 °F - 63.0 °F 68% 30.04 in 10.0 mi East 3.5 mph - N/A   Overcast
6:14 AM 73.4 °F - 64.4 °F 73% 30.04 in 10.0 mi SSE 4.6 mph - N/A   Overcast
6:53 AM 75.0 °F - 64.9 °F 71% 30.05 in 10.0 mi SE 4.6 mph - N/A   Overcast
7:53 AM 75.9 °F - 68.0 °F 76% 30.06 in 10.0 mi SSW 5.8 mph - 0.00 in Rain Light Rain
8:53 AM 75.9 °F - 66.9 °F 74% 30.08 in 10.0 mi SSE 9.2 mph - 0.00 in   Overcast
9:20 AM 78.8 °F - 66.2 °F 65% 30.07 in 10.0 mi SSE 9.2 mph - N/A   Overcast
9:53 AM 79.0 °F - 66.0 °F 64% 30.07 in 10.0 mi South 9.2 mph - N/A   Overcast
10:05 AM 80.6 °F 82.7 °F 66.2 °F 61% 30.07 in 10.0 mi SSW 9.2 mph - N/A   Overcast
10:36 AM 80.6 °F 82.7 °F 66.2 °F 61% 30.07 in 10.0 mi SSW 9.2 mph - N/A   Overcast
10:53 AM 80.1 °F 82.3 °F 66.9 °F 64% 30.07 in 10.0 mi WSW 9.2 mph - N/A   Overcast
11:53 AM 80.1 °F 82.3 °F 66.9 °F 64% 30.07 in 10.0 mi WSW 6.9 mph - N/A   Overcast
12:53 PM 82.0 °F 84.1 °F 66.0 °F 58% 30.05 in 10.0 mi SSW 9.2 mph - N/A   Overcast
1:02 PM 80.6 °F 82.7 °F 66.2 °F 61% 30.04 in 10.0 mi SSW 9.2 mph - N/A   Overcast
1:53 PM 82.0 °F 84.9 °F 68.0 °F 62% 30.04 in 10.0 mi WSW 10.4 mph - N/A   Overcast
1:59 PM 82.4 °F 85.4 °F 68.0 °F 62% 30.03 in 10.0 mi WSW 9.2 mph - N/A   Overcast
2:14 PM 80.6 °F 82.7 °F 66.2 °F 61% 30.03 in 10.0 mi WSW 9.2 mph - N/A   Overcast
2:53 PM 81.0 °F 83.0 °F 66.0 °F 60% 30.03 in 10.0 mi West 9.2 mph - N/A   Overcast
3:53 PM 81.0 °F 83.0 °F 66.0 °F 60% 30.01 in 10.0 mi WSW 8.1 mph - N/A   Overcast
4:53 PM 81.0 °F 83.0 °F 66.0 °F 60% 30.01 in 10.0 mi WSW 9.2 mph - N/A   Overcast
5:53 PM 79.0 °F - 66.9 °F 66% 30.02 in 10.0 mi WSW 8.1 mph - N/A   Overcast
6:53 PM 78.1 °F - 66.0 °F 66% 30.03 in 10.0 mi SSW 5.8 mph - N/A   Overcast
7:53 PM 78.1 °F - 66.0 °F 66% 30.05 in 10.0 mi South 4.6 mph - N/A   Overcast
8:53 PM 78.1 °F - 66.0 °F 66% 30.06 in 10.0 mi South 3.5 mph - N/A   Overcast
9:53 PM 78.1 °F - 66.9 °F 68% 30.06 in 10.0 mi South 6.9 mph - N/A   Overcast
10:43 PM 77.0 °F - 66.2 °F 69% 30.06 in 10.0 mi SSW 4.6 mph - N/A   Overcast
10:53 PM 77.0 °F - 66.9 °F 71% 30.06 in 10.0 mi SSW 4.6 mph - N/A   Overcast
11:53 PM 75.0 °F - 66.0 °F 73% 30.05 in 10.0 mi SE 5.8 mph - N/A   Overcast